{"data":{"norad_id":67386,"epoch":"2026-05-24T23:36:01.597248Z","epoch_age_seconds":90728,"freshness":"FRESH","line1":"1 67386U 26004Z   26144.98335182  .00001436  00000+0  15943-3 0  9996","line2":"2 67386  97.7997 144.0707 0002602 165.0126 195.1168 14.88741190 19840","mean_motion":14.8874119,"eccentricity":0.0002602,"inclination_deg":97.7997,"raan_deg":144.0707,"arg_perigee_deg":165.0126,"mean_anomaly_deg":195.1168,"bstar":0.00015943,"rev_number":1984,"period_min":96.726013203141,"perigee_km":600.05134154336,"apogee_km":603.68373590531,"semimajor_km":6980.0045387243,"source":"CELESTRAK","updated_at":"2026-05-25T13:38:06.933245Z"}}